Location: Brachbach
(49.1847°N, 9.7240°E)
Time: 23:10:08
(UTC+00:00)

Sich 1 Rocket - Pass Details

Date: 23 May 2024
Orbit: 613 x 649 km, 82.5° (Epoch: 14 June)

Event Time Altitude Azimuth Distance (km) Brightness Sun altitude
Rises 02:31:31 0° 347° (NNW) 2,960 7.5 -8.0°
Reaches altitude 10° 02:33:48 10° 345° (NNW) 2,041 6.6 -7.7°
Maximum altitude 02:38:16 65° 265° (W) 703 3.7 -7.2°
Drops below altitude 10° 02:42:40 10° 183° (S) 2,001 5.8 -6.7°
Sets 02:44:53 0° 181° (S) 2,898 6.6 -6.4°
